This is the latest recevied weather packets stored in our database for station/object OH2TH. If no packets are shown the sender has not sent any weather packets the latest 10 day(s).
| Time | Temp. | Humidity | Pressure | Rain* | Wind** | Luminosity | Snow |
|---|---|---|---|---|---|---|---|
| 1777718704 | 19.44° C | 38% | 101 hPa | - | - | - | - |
| 1777717804 | 19.44° C | 38% | 101 hPa | - | - | - | - |
| 1777716904 | 20° C | 38% | 101 hPa | - | - | - | - |
| 1777716004 | 20° C | 37% | 101 hPa | - | - | - | - |
| 1777715103 | 20° C | 38% | 101 hPa | - | - | - | - |
| 1777714203 | 20° C | 38% | 101 hPa | - | - | - | - |
| 1777713303 | 20° C | 38% | 101 hPa | - | - | - | - |
| 1777712403 | 20° C | 38% | 101 hPa | - | - | - | - |
| 1777711503 | 20° C | 38% | 101 hPa | - | - | - | - |
| 1777710603 | 20° C | 36% | 101 hPa | - | - | - | - |
| 1777709703 | 18.89° C | 37% | 101 hPa | - | - | - | - |
| 1777708803 | 17.78° C | 41% | 101 hPa | - | - | - | - |
| 1777707902 | 16.67° C | 42% | 101 hPa | - | - | - | - |
| 1777707002 | 16.67° C | 44% | 101 hPa | - | - | - | - |
| 1777706102 | 16.67° C | 44% | 101 hPa | - | - | - | - |
| 1777705202 | 15° C | 47% | 101 hPa | - | - | - | - |
| 1777704302 | 13.89° C | 50% | 101 hPa | - | - | - | - |
| 1777703402 | 13.89° C | 52% | 101 hPa | - | - | - | - |
| 1777702501 | 12.78° C | 58% | 101 hPa | - | - | - | - |
| 1777701601 | 11.11° C | 65% | 101 hPa | - | - | - | - |
| 1777700701 | 8.89° C | 71% | 101 hPa | - | - | - | - |
| 1777699801 | 7.78° C | 76% | 101 hPa | - | - | - | - |
| 1777698905 | 6.67° C | 79% | 101 hPa | - | - | - | - |
| 1777698004 | 6.11° C | 82% | 101 hPa | - | - | - | - |
| 1777697103 | 5° C | 86% | 101 hPa | - | - | - | - |
* Rain since midnight (hover to see other rain measurements)
** Current wind speed in m/s (hover to see current wind gust speed)